Crosby, ND

8:28 PM CDT on August 27, 2016 (GMT -0500)
Crosby

Weather History for KD50 - October, 2012

Change the Weather History Date:

Monday, October 15, 2012

  Actual Average (KISN) Record (KISN)
Temperature  
Mean Temperature 56 °F 44 °F  
Max Temperature 71 °F 57 °F 82 °F (1953)
Min Temperature 39 °F 30 °F 14 °F (1992)
Degree Days  
Heating Degree Days 9 21  
Month to date heating degree days 275  
Since 1 July heating degree days 621  
Cooling Degree Days 0 0  
Month to date cooling degree days 0  
Year to date cooling degree days 455  
Growing Degree Days 6 (Base 50)    
Moisture  
Dew Point 38 °F    
Average Humidity 53    
Maximum Humidity 87    
Minimum Humidity 29    
Precipitation  
Precipitation 0.00 in 0.03 in 1.42 in (1962)
Month to date precipitation 0.47  
Year to date precipitation 12.65  
Sea Level Pressure  
Sea Level Pressure 29.63 in    
Wind  
Wind Speed 11 mph (WSW)    
Max Wind Speed 17 mph    
Max Gust Speed 21 mph    
Visibility 10 miles    
Events      
T = Trace of Precipitation, MM = Missing Value Source: NWS Daily Summary

Daily Weather History Graph

Daily Weather History Graph

Search for Another Location

Airport or City:

Trip Planner

Search our weather history database for the weather conditions in past years. The results will help you decide how hot, cold, wet, or windy it might be!

Date:

Astronomy

Oct. 15, 2012 Rise Set
Actual Time 8:14 AM CDT 7:02 PM CDT
Civil Twilight 7:42 AM CDT 7:34 PM CDT
Nautical Twilight 7:05 AM CDT 8:10 PM CDT
Astronomical Twilight 6:29 AM CDT 8:47 PM CDT
Moon 8:33 AM CDT (10/15) 6:55 PM CDT (10/15)
Length of Visible Light 11h 51m
Length of Day
10h 47m
New Moon, 0% of the Moon is Illuminated
Oct 15
New Moon
Oct 21
First Quarter
Oct 29
Full
Nov 6
Last Quarter
Nov 13
New

Hourly Weather History & Observations

Time (CDT) Temp. Windchill Dew Point Humidity Pressure Visibility Wind Dir Wind Speed Gust Speed Precip Events Conditions
12:15 AM 50.0 °F - 37.4 °F 62% 29.78 in 10.0 mi South 10.4 mph - N/A   Overcast
12:35 AM 50.0 °F - 39.2 °F 66% 29.77 in 10.0 mi SSW 11.5 mph - N/A   Overcast
12:55 AM 50.0 °F - 39.2 °F 66% 29.76 in 10.0 mi South 10.4 mph - N/A   Overcast
1:15 AM 51.8 °F - 39.2 °F 62% 29.75 in 10.0 mi South 9.2 mph - N/A   Overcast
1:35 AM 51.8 °F - 39.2 °F 62% 29.74 in 10.0 mi South 10.4 mph - N/A   Overcast
1:55 AM 51.8 °F - 39.2 °F 62% 29.73 in 10.0 mi South 10.4 mph - N/A   Scattered Clouds
2:15 AM 53.6 °F - 39.2 °F 58% 29.72 in 10.0 mi South 11.5 mph - N/A   Partly Cloudy
2:35 AM 53.6 °F - 39.2 °F 58% 29.72 in 10.0 mi South 11.5 mph - N/A   Scattered Clouds
2:55 AM 53.6 °F - 39.2 °F 58% 29.71 in 10.0 mi South 15.0 mph - N/A   Mostly Cloudy
3:15 AM 55.4 °F - 39.2 °F 54% 29.71 in 10.0 mi SSW 12.7 mph - N/A   Mostly Cloudy
3:35 AM 55.4 °F - 37.4 °F 51% 29.69 in 10.0 mi South 12.7 mph 16.1 mph N/A   Overcast
3:55 AM 55.4 °F - 37.4 °F 51% 29.69 in 10.0 mi SSW 15.0 mph - N/A   Mostly Cloudy
4:15 AM 55.4 °F - 37.4 °F 51% 29.67 in 10.0 mi South 15.0 mph - N/A   Mostly Cloudy
4:35 AM 55.4 °F - 37.4 °F 51% 29.67 in 10.0 mi South 12.7 mph 18.4 mph N/A   Overcast
4:55 AM 55.4 °F - 37.4 °F 51% 29.66 in 10.0 mi South 15.0 mph - N/A   Mostly Cloudy
5:15 AM 55.4 °F - 37.4 °F 51% 29.65 in 10.0 mi SSW 12.7 mph 18.4 mph N/A   Scattered Clouds
5:35 AM 53.6 °F - 39.2 °F 58% 29.65 in 10.0 mi South 12.7 mph - N/A   Mostly Cloudy
5:55 AM 53.6 °F - 37.4 °F 54% 29.65 in 10.0 mi SSW 13.8 mph - N/A   Mostly Cloudy
6:15 AM 53.6 °F - 37.4 °F 54% 29.63 in 10.0 mi SSW 15.0 mph - N/A   Mostly Cloudy
6:35 AM 53.6 °F - 37.4 °F 54% 29.63 in 10.0 mi SSW 13.8 mph - N/A   Scattered Clouds
6:55 AM 51.8 °F - 37.4 °F 58% 29.62 in 10.0 mi SSW 13.8 mph - N/A   Clear
7:15 AM 50.0 °F - 37.4 °F 62% 29.63 in 10.0 mi SSW 11.5 mph - N/A   Clear
7:35 AM 48.2 °F - 37.4 °F 66% 29.63 in 10.0 mi SSW 10.4 mph - N/A   Clear
7:55 AM 48.2 °F - 37.4 °F 66% 29.62 in 10.0 mi SSW 10.4 mph - N/A   Clear
8:15 AM 48.2 °F - 37.4 °F 66% 29.62 in 10.0 mi SSW 11.5 mph - N/A   Clear
8:35 AM 46.4 °F 41.5 °F 37.4 °F 71% 29.62 in 10.0 mi SSW 10.4 mph - N/A   Clear
8:55 AM 48.2 °F - 37.4 °F 66% 29.62 in 10.0 mi SSW 10.4 mph - N/A   Clear
9:15 AM 50.0 °F - 39.2 °F 66% 29.61 in 10.0 mi SW 6.9 mph - N/A   Clear
9:35 AM 55.4 °F - 39.2 °F 54% 29.61 in 10.0 mi SW 12.7 mph - N/A   Clear
9:55 AM 57.2 °F - 39.2 °F 51% 29.61 in 0.5 mi SW 13.8 mph - N/A   Haze
10:15 AM 60.8 °F - 39.2 °F 45% 29.61 in - WSW 10.4 mph 19.6 mph N/A   Partly Cloudy
10:35 AM - - - N/A% - - North - - N/A   Unknown
10:55 AM - - - N/A% - - North - - N/A   Unknown
11:15 AM - - - N/A% - - North - - N/A   Unknown
11:35 AM - - - N/A% - - North - - N/A   Unknown
11:55 AM - - - N/A% 29.61 in - West 17.3 mph - N/A   Unknown
12:15 PM 66.2 °F - 39.2 °F 37% 29.60 in 10.0 mi West 13.8 mph - N/A   Unknown
12:35 PM 68.0 °F - 39.2 °F 35% 29.60 in 10.0 mi West 13.8 mph - N/A   Clear
12:55 PM 68.0 °F - 39.2 °F 35% 29.60 in 10.0 mi West 12.7 mph 19.6 mph N/A   Clear
1:15 PM 66.2 °F - 39.2 °F 37% 29.60 in 10.0 mi West 15.0 mph 18.4 mph N/A   Partly Cloudy
1:35 PM 66.2 °F - 39.2 °F 37% 29.60 in 10.0 mi West 13.8 mph - N/A   Clear
1:55 PM 69.8 °F - 39.2 °F 33% 29.59 in 10.0 mi West 15.0 mph - N/A   Clear
2:35 PM 71.6 °F - 39.2 °F 31% 29.58 in 10.0 mi WNW 13.8 mph 17.3 mph N/A   Clear
2:55 PM 71.6 °F - 39.2 °F 31% 29.58 in 10.0 mi WNW 10.4 mph - N/A   Partly Cloudy
3:15 PM 71.6 °F - 39.2 °F 31% 29.58 in 10.0 mi West 11.5 mph 20.7 mph N/A   Clear
3:35 PM 71.6 °F - 39.2 °F 31% 29.58 in 10.0 mi NW 10.4 mph - N/A   Clear
3:55 PM 68.0 °F - 39.2 °F 35% 29.58 in 10.0 mi NW 11.5 mph - N/A   Clear
4:15 PM 71.6 °F - 39.2 °F 31% 29.58 in 10.0 mi WNW 12.7 mph 16.1 mph N/A   Clear
4:35 PM 69.8 °F - 39.2 °F 33% 29.58 in 10.0 mi West 10.4 mph - N/A   Clear
4:55 PM 71.6 °F - 37.4 °F 29% 29.58 in 10.0 mi West 12.7 mph - N/A   Clear
5:15 PM 68.0 °F - 37.4 °F 33% 29.58 in 10.0 mi NW 12.7 mph - N/A   Clear
5:35 PM 66.2 °F - 37.4 °F 35% 29.58 in 10.0 mi WNW 12.7 mph - N/A   Clear
5:55 PM 66.2 °F - 37.4 °F 35% 29.58 in 10.0 mi WNW 9.2 mph - N/A   Clear
6:15 PM 64.4 °F - 37.4 °F 37% 29.58 in 10.0 mi West 8.1 mph - N/A   Clear
6:35 PM 62.6 °F - 37.4 °F 39% 29.59 in 10.0 mi West 9.2 mph - N/A   Clear
6:55 PM 60.8 °F - 37.4 °F 42% 29.59 in 10.0 mi West 9.2 mph - N/A   Clear
7:15 PM 59.0 °F - 37.4 °F 45% 29.60 in 10.0 mi West 9.2 mph - N/A   Clear
7:35 PM 55.4 °F - 37.4 °F 51% 29.60 in 10.0 mi WNW 6.9 mph - N/A   Clear
7:55 PM 53.6 °F - 37.4 °F 54% 29.61 in 10.0 mi NW 6.9 mph - N/A   Clear
8:15 PM 53.6 °F - 37.4 °F 54% 29.61 in 10.0 mi WNW 8.1 mph - N/A   Clear
8:35 PM 53.6 °F - 37.4 °F 54% 29.62 in 10.0 mi NNW 8.1 mph - N/A   Clear
8:55 PM 50.0 °F - 37.4 °F 62% 29.62 in 10.0 mi NW 8.1 mph - N/A   Clear
9:15 PM 48.2 °F - 37.4 °F 66% 29.62 in 10.0 mi NW 5.8 mph - N/A   Clear
9:35 PM 46.4 °F 42.9 °F 35.6 °F 66% 29.62 in 10.0 mi WNW 6.9 mph - N/A   Clear
9:55 PM 44.6 °F 39.7 °F 37.4 °F 76% 29.62 in 10.0 mi WNW 9.2 mph - N/A   Clear
10:15 PM 46.4 °F 41.5 °F 39.2 °F 76% 29.63 in 10.0 mi WNW 10.4 mph - N/A   Clear
10:35 PM 44.6 °F 39.7 °F 37.4 °F 76% 29.64 in 10.0 mi WNW 9.2 mph - N/A   Partly Cloudy
10:55 PM 44.6 °F 42.2 °F 37.4 °F 76% 29.63 in 10.0 mi WSW 4.6 mph - N/A   Partly Cloudy
11:15 PM 42.8 °F 39.3 °F 37.4 °F 81% 29.63 in 10.0 mi West 5.8 mph - N/A   Clear
11:35 PM 41.0 °F 39.0 °F 35.6 °F 81% 29.63 in 10.0 mi West 3.5 mph - N/A   Clear
11:55 PM 39.2 °F 35.9 °F 35.6 °F 87% 29.62 in 10.0 mi WSW 4.6 mph - N/A   Clear